Location: Dover
(39.1580°N, 75.5250°W)
Time: 16:59:48
(UTC-04:00)

ISS - All Passes

Search period start: 01 September 2014 00:00
Search period end: 11 September 2014 00:00
Orbit: 414 x 419 km, 51.6° (Epoch: 01 September)

Date Brightness Start Highest point End Pass type
(mag) Time Alt. Az. Time Alt. Az. Time Alt. Az.
01 Sep - 09:01:22 10° SSE 09:03:03 13° SE 09:04:45 10° E daylight
01 Sep - 10:36:08 10° WSW 10:39:25 60° NW 10:42:43 10° NE daylight
01 Sep - 12:14:47 10° NW 12:16:42 14° NNW 12:18:38 10° NNE daylight
01 Sep - 15:29:52 10° NNW 15:32:23 20° NNE 15:34:54 10° ENE daylight
01 Sep - 17:06:05 10° WNW 17:09:24 67° SW 17:12:42 10° SE daylight
02 Sep - 09:47:35 10° SW 09:50:53 75° SE 09:54:13 10° NE daylight
02 Sep - 11:25:30 10° WNW 11:27:56 19° NNW 11:30:23 10° NNE daylight
02 Sep - 14:41:36 10° NNW 14:43:38 15° NNE 14:45:39 10° NE daylight
02 Sep - 16:17:33 10° NW 16:20:52 67° NE 16:24:11 10° ESE daylight
02 Sep - 17:55:50 10° WSW 17:57:12 12° SW 17:58:33 10° SSW daylight
03 Sep - 08:59:17 10° SSW 09:02:24 39° SE 09:05:32 10° ENE daylight
03 Sep - 10:36:22 10° W 10:39:12 26° NNW 10:42:04 10° NNE daylight
03 Sep - 12:16:08 10° NNW 12:16:51 11° N 12:17:34 10° N daylight
03 Sep - 13:53:22 10° NNW 13:54:48 12° NNE 13:56:14 10° NE daylight
03 Sep - 15:29:06 10° NW 15:32:15 39° NNE 15:35:25 10° ESE daylight
03 Sep - 17:06:12 10° W 17:08:49 21° SW 17:11:25 10° S daylight
04 Sep - 08:11:20 10° S 08:13:57 22° SE 08:16:34 10° E daylight
04 Sep - 09:47:22 10° WSW 09:50:31 39° NNW 09:53:40 10° NE daylight
04 Sep - 11:26:33 10° NW 11:27:58 12° NNW 11:29:23 10° NNE daylight
04 Sep - 13:05:11 10° N 13:05:55 11° N 13:06:39 10° NNE daylight
04 Sep - 14:40:42 10° NNW 14:43:34 26° NNE 14:46:25 10° E daylight
04 Sep - 16:17:14 10° WNW 16:20:22 38° SW 16:23:29 10° SSE daylight
05 Sep - 07:24:09 10° SSE 07:25:32 12° SE 07:26:56 10° ESE daylight
05 Sep - 08:58:33 10° WSW 09:01:51 66° NW 09:05:11 10° NE daylight
05 Sep - 10:37:06 10° NW 10:39:06 15° NNW 10:41:07 10° NNE daylight
05 Sep - 13:52:20 10° NNW 13:54:47 19° NNE 13:57:13 10° ENE daylight
05 Sep - 15:28:30 10° NW 15:31:49 74° SW 15:35:08 10° SE daylight
06 Sep - 08:09:57 10° SW 08:13:15 67° SE 08:16:33 10° ENE daylight
06 Sep - 09:47:45 10° WNW 09:50:15 19° NNW 09:52:46 10° NNE daylight
06 Sep - 13:03:59 10° NNW 13:05:55 14° NNE 13:07:51 10° NE daylight
06 Sep - 14:39:53 10° NW 14:43:12 61° NE 14:46:29 10° ESE daylight
06 Sep - 16:17:53 10° W 16:19:33 13° SW 16:21:13 10° SSW daylight
07 Sep - 07:21:37 10° SSW 07:24:41 35° SE 07:27:45 10° ENE daylight
07 Sep - 08:58:32 10° W 09:01:26 27° NNW 09:04:21 10° NNE daylight
07 Sep - 10:38:12 10° NNW 10:39:03 11° N 10:39:54 10° N daylight
07 Sep - 12:15:40 10° N 12:17:00 12° NNE 12:18:19 10° NE daylight
07 Sep - 13:51:21 10° NW 13:54:29 36° NNE 13:57:35 10° E daylight
07 Sep - 15:28:21 10° WNW 15:31:04 24° SW 15:33:47 10° S daylight
08 Sep - 06:33:40 10° S 06:36:09 20° SE 06:38:38 10° E daylight
08 Sep - 08:09:29 10° WSW 08:12:40 42° NNW 08:15:51 10° NE daylight
08 Sep - 09:48:33 10° NW 09:50:05 13° NNW 09:51:36 10° NNE daylight
08 Sep - 11:27:25 10° N 11:28:01 10° N 11:28:36 10° NNE daylight
08 Sep - 13:02:53 10° NNW 13:05:41 24° NNE 13:08:28 10° E daylight
08 Sep - 14:39:20 10° WNW 14:42:31 43° SW 14:45:41 10° SSE daylight
09 Sep - 05:46:44 10° SE 05:47:39 11° SE 05:48:34 10° ESE visible
09 Sep - 07:20:37 10° WSW 07:23:56 74° NW 07:27:15 10° NE daylight
09 Sep - 08:59:01 10° WNW 09:01:07 16° NNW 09:03:14 10° NNE daylight
09 Sep - 12:14:26 10° NNW 12:16:48 18° NNE 12:19:09 10° ENE daylight
09 Sep - 13:50:32 10° NW 13:53:52 82° SW 13:57:11 10° SE daylight
10 Sep - 06:31:58 10° SW 06:35:14 60° SE 06:38:31 10° ENE daylight
10 Sep - 08:09:36 10° WNW 08:12:11 21° NNW 08:14:47 10° NNE daylight
10 Sep - 11:26:00 10° NNW 11:27:50 14° NNE 11:29:40 10° NE daylight
10 Sep - 13:01:52 10° NW 13:05:08 55° NE 13:08:24 10° ESE daylight
10 Sep - 14:39:35 10° W 14:41:32 15° SW 14:43:28 10° SSW daylight
